Home   Weather   L'viv   Past weeks

Flag for Ukraine Past Weather in L'viv, Ukraine — Yesterday and Last 2 Weeks

Now
52 °F

Clear.


Feels Like: 51 °F
Forecast: 49 / 74 °F
Wind: 3 mph from Southeast

Location: L'Viv Airport

Current Time: Apr 27, 2017 at 6:38:21 am

Latest Report: Apr 27, 2017 at 6:00 am


Visibility: 10 mi

Pressure: 29.80 "Hg

Humidity: 72%

Dew Point: 43 °F

Location of L'vivLocation

Past Weather in L'viv — Graph

°F

L'viv Temperature Yesterday

Maximum temperature yesterday: 66 °F (at 3:30 pm)
Minimum temperature yesterday: 48 °F (at 12:30 am)
Average temperature yesterday: 58 °F

High & Low Weather Summary for the Past Weeks

 TemperatureHumidityPressure
High66 °F (Apr 26, 3:30 pm)100% (Apr 17, 8:00 am)30.24 "Hg (Apr 17, 8:00 am)
Low25 °F (Apr 17, 5:30 am)27% (Apr 17, 5:30 pm)29.68 "Hg (Apr 13, 8:00 am)
Average44 °F59%29.94 "Hg
* Reported Apr 12 4:00 am — Apr 27 4:30 am, L'viv, Weather by CustomWeather, © 2017

Note: Actual official high and low records may vary slightly from our data, if they occured in-between our weather recording intervals... More about our weather records

Advertising

L'viv Weather History for the Previous 24 Hours

Scroll right to see more
 ConditionsComfort  
Time TempWeatherWind HumidityBarometerVisibility
4:30 am
Thu, Apr 27
54 °FSprinkles. Mostly cloudy.1 mph67%29.83 "HgN/A
4:00 am55 °FClear.1 mph59%29.83 "Hg10 mi
3:30 am57 °FClear.3 mph51%29.83 "Hg10 mi
3:00 am59 °FPassing clouds.6 mph45%29.83 "HgN/A
2:30 am59 °FClear.6 mph48%29.83 "Hg10 mi
2:00 am59 °FClear.8 mph48%29.83 "Hg10 mi
1:30 am61 °FClear.8 mph45%29.83 "Hg10 mi
1:00 am61 °FClear.8 mph45%29.83 "Hg10 mi
12:30 am61 °FClear.8 mph45%29.83 "Hg10 mi
12:00 am61 °FClear.8 mph45%29.83 "Hg10 mi
11:30 pm
Wed, Apr 26
61 °FClear.8 mph45%29.83 "Hg10 mi
11:00 pm59 °FClear.10 mph48%29.83 "Hg10 mi
10:30 pm55 °FClear.8 mph55%29.83 "Hg10 mi
10:00 pm57 °FClear.10 mph55%29.83 "Hg10 mi
9:30 pm57 °FClear.10 mph55%29.83 "Hg10 mi
9:00 pm57 °FClear.6 mph55%29.83 "Hg10 mi
8:30 pm59 °FSunny.8 mph51%29.83 "Hg10 mi
8:00 pm61 °FSunny.8 mph48%29.83 "Hg10 mi
7:30 pm63 °FSunny.8 mph45%29.83 "Hg10 mi
7:00 pm64 °FSunny.8 mph37%29.83 "Hg10 mi
6:30 pm66 °FPassing clouds.10 mph37%29.83 "HgN/A
6:00 pm66 °FPassing clouds.13 mph37%29.83 "HgN/A
5:30 pm64 °FPassing clouds.10 mph43%29.83 "HgN/A
5:00 pm66 °FPassing clouds.15 mph35%29.83 "HgN/A
4:30 pm66 °FSunny.15 mph43%29.83 "Hg10 mi
4:00 pm66 °FSunny.15 mph37%29.83 "Hg10 mi
3:30 pm66 °FSunny.17 mph40%29.83 "Hg10 mi
3:00 pm64 °FSunny.17 mph40%29.83 "Hg10 mi
2:30 pm64 °FSunny.20 mph43%29.83 "Hg10 mi
2:00 pm61 °FSunny.17 mph48%29.83 "Hg10 mi
1:30 pm61 °FBroken clouds.15 mph48%29.83 "HgN/A
1:00 pm61 °FBroken clouds.17 mph48%29.83 "HgN/A
12:30 pm61 °FBroken clouds.17 mph45%29.83 "HgN/A
12:00 pm61 °FBroken clouds.20 mph45%29.83 "HgN/A
11:30 am61 °FBroken clouds.22 mph45%29.83 "HgN/A
11:14 am61 °FSunny.22 mph45%29.83 "Hg10 mi
11:09 am61 °FSunny.20 mph45%29.83 "Hg10 mi
10:30 am61 °FSunny.15 mph48%29.83 "Hg10 mi
10:00 am61 °FSunny.13 mph48%29.83 "Hg10 mi
9:30 am61 °FSunny.15 mph52%29.80 "Hg10 mi
9:00 am59 °FSunny.15 mph51%29.83 "Hg10 mi
8:30 am59 °FSunny.13 mph51%29.80 "Hg10 mi
8:00 am54 °FSunny.10 mph63%29.80 "Hg10 mi
7:30 am52 °FSunny.8 mph67%29.80 "Hg10 mi
7:00 am54 °FSunny.10 mph63%29.80 "Hg10 mi
6:30 am52 °FSunny.8 mph67%29.80 "Hg10 mi
6:00 am48 °FClear.6 mph71%29.80 "Hg10 mi
Weather by CustomWeather, © 2017

See weather overviewHow to use our weather pages